Weather History for Rogers City, MI

Change the Weather History Date:

Saturday, November 16, 2013

  Actual Average (KAPN) Record (KAPN)
Temperature  
Mean Temperature 45 °F 36 °F  
Max Temperature 55 °F 43 °F 69 °F (1931)
Min Temperature 35 °F 28 °F 0 °F (1933)
Degree Days  
Heating Degree Days 20 29  
Month to date heating degree days 429  
Since 1 July heating degree days 1373  
Moisture  
Dew Point 39 °F    
Average Humidity 78    
Maximum Humidity 87    
Minimum Humidity 66    
Precipitation  
Precipitation 0.00 in 0.07 in 0.81 in (1961)
Month to date precipitation 1.13  
Year to date precipitation 25.44  
Snow  
Snow 0.00 in 0.30 in 9.90 in (1989)
Month to date snowfall 2.7  
Since 1 July snowfall 3.1  
Snow Depth -    
Sea Level Pressure  
Sea Level Pressure 29.86 in    
Wind  
Wind Speed 10 mph (South)    
Max Wind Speed 23 mph    
Max Gust Speed 31 mph    
Visibility 10 miles    
Events Rain    
T = Trace of Precipitation, MM = Missing Value Source: NWS Daily Summary

Daily Weather History Graph

Daily Weather History Graph

Search for Another Location

Airport:

Trip Planner

Search our weather history database for the weather conditions in past years. The results will help you decide how hot, cold, wet, or windy it might be!

Date:

Astronomy

Nov. 16, 2013 Rise Set
Actual Time 7:35 AM EST 5:03 PM EST
Civil Twilight 7:03 AM EST 5:36 PM EST
Nautical Twilight 6:27 AM EST 6:12 PM EST
Astronomical Twilight 5:52 AM EST 6:46 PM EST
Moon 4:40 PM EST (11/16) 6:28 AM EST (11/16)
Length of Visible Light 10h 32m
Length of Day
9h 28m
Waxing Gibbous, 99% of the Moon is Illuminated
Nov 16
Waxing Gibbous
Nov 17
Full
Nov 25
Last Quarter
Dec 2
New
Dec 9
First Quarter

Hourly Weather History & Observations

Time (EST) Temp. Windchill Dew Point Humidity Pressure Visibility Wind Dir Wind Speed Gust Speed Precip Events Conditions
12:15 AM 38.3 °F 33.9 °F 32.9 °F 81% 29.97 in 10.0 mi South 5.8 mph - N/A   Clear
12:35 AM 37.9 °F 33.5 °F 32.9 °F 82% 29.97 in 10.0 mi South 5.8 mph - N/A   Clear
12:55 AM 38.1 °F 33.7 °F 32.9 °F 81% 29.98 in 10.0 mi South 5.8 mph - N/A   Clear
1:14 AM 37.2 °F 33.6 °F 32.5 °F 83% 29.98 in 10.0 mi SSE 4.6 mph - N/A   Clear
1:35 AM 36.5 °F 32.7 °F 32.2 °F 84% 29.97 in 10.0 mi SSE 4.6 mph - N/A   Clear
1:55 AM 35.8 °F 31.9 °F 32.2 °F 87% 29.97 in 10.0 mi South 4.6 mph - N/A   Clear
2:14 AM 35.6 °F 32.8 °F 32.0 °F 87% 29.98 in 10.0 mi South 3.5 mph - N/A   Clear
2:35 AM 36.3 °F 30.8 °F 32.5 °F 86% 29.98 in 10.0 mi SSE 6.9 mph - N/A   Clear
2:55 AM 36.3 °F 30.8 °F 32.4 °F 86% 29.98 in 10.0 mi SSE 6.9 mph - N/A   Clear
3:14 AM 36.0 °F 31.1 °F 32.2 °F 86% 29.97 in 10.0 mi SSE 5.8 mph - N/A   Clear
3:35 AM 36.5 °F 31.8 °F 32.5 °F 86% 29.97 in 10.0 mi SSE 5.8 mph - N/A   Clear
3:55 AM 36.9 °F 32.2 °F 32.5 °F 84% 29.97 in 10.0 mi South 5.8 mph - N/A   Clear
4:15 AM 37.0 °F 31.0 °F 32.5 °F 84% 29.97 in 10.0 mi SSW 8.1 mph - N/A   Clear
4:35 AM 37.4 °F 30.8 °F 32.9 °F 84% 29.98 in 10.0 mi SSW 9.2 mph - N/A   Clear
4:54 AM 37.8 °F 31.8 °F 32.9 °F 83% 29.98 in 10.0 mi South 8.1 mph - N/A   Clear
5:15 AM 37.8 °F 31.3 °F 32.9 °F 83% 29.98 in 10.0 mi South 9.2 mph - N/A   Clear
5:35 AM 37.4 °F 32.8 °F 32.7 °F 83% 29.97 in 10.0 mi South 5.8 mph - N/A   Clear
5:55 AM 37.0 °F 29.3 °F 32.5 °F 84% 29.97 in 10.0 mi South 11.5 mph - N/A   Clear
6:15 AM 36.7 °F 28.4 °F 32.5 °F 85% 29.98 in 10.0 mi SSW 12.7 mph - N/A   Clear
6:35 AM 37.0 °F 29.3 °F 32.9 °F 85% 29.99 in 10.0 mi SSW 11.5 mph - N/A   Clear
6:55 AM 37.4 °F 30.3 °F 33.3 °F 85% 29.99 in 10.0 mi South 10.4 mph - N/A   Clear
7:15 AM 36.9 °F 29.1 °F 32.9 °F 86% 29.99 in 10.0 mi South 11.5 mph - N/A   Clear
7:34 AM 36.7 °F 28.9 °F 32.9 °F 86% 29.99 in 10.0 mi South 11.5 mph - N/A   Clear
7:55 AM 37.9 °F 31.5 °F 33.3 °F 83% 29.99 in 10.0 mi South 9.2 mph - N/A   Mostly Cloudy
8:14 AM 38.3 °F 30.5 °F 32.9 °F 81% 29.98 in 10.0 mi South 12.7 mph 17.3 mph N/A   Overcast
8:35 AM 38.8 °F 30.8 °F 32.7 °F 79% 29.97 in 10.0 mi South 13.8 mph 19.6 mph N/A   Mostly Cloudy
8:55 AM 39.7 °F 32.3 °F 32.7 °F 76% 29.97 in 10.0 mi South 12.7 mph - N/A   Mostly Cloudy
9:15 AM 40.8 °F 33.7 °F 32.9 °F 73% 29.97 in 10.0 mi South 12.7 mph 23.0 mph N/A   Mostly Cloudy
9:35 AM 41.0 °F 34.7 °F 33.3 °F 74% 29.96 in 10.0 mi South 10.4 mph 16.1 mph N/A   Scattered Clouds
9:55 AM 41.5 °F 35.4 °F 33.6 °F 73% 29.96 in 10.0 mi South 10.4 mph - N/A   Scattered Clouds
10:15 AM 42.3 °F 35.5 °F 34.0 °F 72% 29.95 in 10.0 mi SSE 12.7 mph - N/A   Clear
10:35 AM 43.7 °F 37.7 °F 34.9 °F 71% 29.95 in 10.0 mi South 11.5 mph 17.3 mph N/A   Clear
10:54 AM 44.8 °F 38.3 °F 35.8 °F 71% 29.94 in 10.0 mi South 13.8 mph 20.7 mph N/A   Clear
11:15 AM 46.4 °F 40.7 °F 37.0 °F 70% 29.93 in 10.0 mi South 12.7 mph 18.4 mph N/A   Clear
11:35 AM 47.5 °F - 38.1 °F 70% 29.91 in 10.0 mi South 15.0 mph 23.0 mph N/A   Clear
11:54 AM 49.8 °F - 39.4 °F 67% 29.90 in 10.0 mi South 16.1 mph 24.2 mph N/A   Clear
12:15 PM 50.5 °F - 40.1 °F 67% 29.88 in 10.0 mi SSE 15.0 mph 23.0 mph N/A   Clear
12:35 PM 52.3 °F - 41.2 °F 66% 29.87 in 10.0 mi South 15.0 mph 27.6 mph N/A   Clear
12:55 PM 52.5 °F - 41.5 °F 66% 29.87 in 10.0 mi South 19.6 mph 25.3 mph N/A   Clear
1:15 PM 51.8 °F - 41.7 °F 68% 29.86 in 10.0 mi South 17.3 mph 23.0 mph N/A   Clear
1:35 PM 52.2 °F - 42.1 °F 69% 29.86 in 10.0 mi South 12.7 mph 23.0 mph N/A   Clear
1:55 PM 54.0 °F - 42.8 °F 66% 29.85 in 10.0 mi South 17.3 mph 25.3 mph N/A   Clear
2:15 PM 55.0 °F - 43.7 °F 66% 29.83 in 10.0 mi South 15.0 mph 26.5 mph N/A   Clear
2:34 PM 55.6 °F - 44.2 °F 66% 29.82 in 10.0 mi South 17.3 mph 27.6 mph N/A   Clear
2:55 PM 54.9 °F - 44.6 °F 68% 29.82 in 10.0 mi South 12.7 mph 21.9 mph N/A   Scattered Clouds
3:15 PM 54.1 °F - 44.6 °F 70% 29.81 in 10.0 mi SSE 13.8 mph 25.3 mph N/A   Scattered Clouds
3:34 PM 53.6 °F - 44.6 °F 72% 29.80 in 10.0 mi South 15.0 mph 23.0 mph N/A   Mostly Cloudy
3:55 PM 53.6 °F - 44.8 °F 72% 29.79 in 10.0 mi SSE 12.7 mph 18.4 mph N/A   Overcast
4:15 PM 52.9 °F - 44.8 °F 74% 29.79 in 10.0 mi SSE 12.7 mph 17.3 mph N/A   Overcast
4:35 PM 52.7 °F - 44.8 °F 74% 29.79 in 10.0 mi South 11.5 mph 19.6 mph N/A   Mostly Cloudy
4:55 PM 51.8 °F - 44.6 °F 76% 29.79 in 10.0 mi SSE 9.2 mph - N/A   Overcast
5:15 PM 51.3 °F - 44.2 °F 77% 29.79 in 10.0 mi SSE 8.1 mph - N/A   Overcast
5:35 PM 51.1 °F - 44.2 °F 77% 29.79 in 10.0 mi SSE 9.2 mph - N/A   Overcast
5:55 PM 50.9 °F - 44.2 °F 78% 29.79 in 10.0 mi SSE 5.8 mph - N/A   Overcast
6:15 PM 50.9 °F - 44.6 °F 79% 29.78 in 10.0 mi SSE 6.9 mph - N/A   Overcast
6:35 PM 50.9 °F - 44.6 °F 79% 29.77 in 10.0 mi SSE 9.2 mph - N/A   Overcast
6:54 PM 51.3 °F - 45.0 °F 79% 29.76 in 10.0 mi SE 9.2 mph 16.1 mph N/A   Overcast
7:15 PM 51.4 °F - 45.5 °F 80% 29.74 in 10.0 mi SE 11.5 mph - N/A   Overcast
7:35 PM 52.0 °F - 45.9 °F 80% 29.73 in 10.0 mi SSE 11.5 mph 19.6 mph N/A   Overcast
7:54 PM 52.3 °F - 46.0 °F 79% 29.71 in 10.0 mi SSE 17.3 mph 25.3 mph N/A   Overcast
8:15 PM 52.7 °F - 46.4 °F 79% 29.71 in 10.0 mi SSE 17.3 mph 24.2 mph N/A   Overcast
8:34 PM 52.9 °F - 46.6 °F 79% 29.70 in 10.0 mi South 15.0 mph 24.2 mph N/A   Overcast
8:55 PM 53.1 °F - 46.8 °F 79% 29.69 in 10.0 mi South 15.0 mph 25.3 mph N/A   Overcast
9:14 PM 53.2 °F - 46.8 °F 79% 29.68 in 10.0 mi South 12.7 mph 21.9 mph N/A   Overcast
9:35 PM 53.2 °F - 47.3 °F 80% 29.66 in 10.0 mi SSE 16.1 mph 21.9 mph N/A   Overcast
9:54 PM 53.6 °F - 47.3 °F 79% 29.65 in 10.0 mi South 16.1 mph 23.0 mph N/A   Overcast
10:15 PM 54.0 °F - 47.7 °F 79% 29.64 in 10.0 mi South 17.3 mph 21.9 mph N/A   Overcast
10:35 PM 54.5 °F - 48.0 °F 79% 29.63 in 10.0 mi South 15.0 mph 24.2 mph N/A   Overcast
10:54 PM 54.7 °F - 48.2 °F 79% 29.61 in 10.0 mi South 18.4 mph 26.5 mph N/A   Overcast
11:15 PM 55.0 °F - 48.6 °F 79% 29.61 in 10.0 mi South 19.6 mph 31.1 mph N/A Rain Light Rain
11:35 PM 53.6 °F - 49.3 °F 85% 29.61 in 7.0 mi South 23.0 mph 31.1 mph N/A Rain Light Rain
11:55 PM 53.6 °F - 49.6 °F 86% 29.60 in 7.0 mi South 17.3 mph 29.9 mph N/A   Mostly Cloudy